Location: ??????
(55.6361°N, 38.0803°E)
Time: 20:58:47
(UTC+00:00)

Cosmos 405 Rocket - Pass Details

Date: 30 March 2020
Orbit: 490 x 554 km, 81.3° (Epoch: 29 May)

Event Time Altitude Azimuth Distance (km) Brightness Sun altitude
Rises 00:16:56 0° 347° (NNW) 2,586 6.7 -21.6°
Reaches altitude 10° 00:19:04 10° 350° (N) 1,698 5.7 -21.4°
Maximum altitude 00:22:46 69° 74° (ENE) 534 2.8 -21.0°
Enters shadow 00:24:03 38° 146° (SE) 775 3.4 -20.9°
